Flag for Germany Weather past 2 weeks in Radebeul, Saxony, Germany

Now
76 °F

Passing clouds.


Feels Like: 78 °F
Forecast: 66 / 89 °F
Wind: 6 mph from Southeast

Location: Dresden-Klotzsche

Current Time: Jul 2, 2015 at 11:05:51 AM

Latest Report: Jul 2, 2015 at 10:00 AM


Visibility: 31 mi

Pressure: 30.23 "Hg

Humidity: 43%

Dew point: 53 °F

Location of RadebeulLocation

Historic Weather in Radebeul — Graph

°F

Radebeul temperature yesterday

Maximum temperature yesterday: 81 °F (at 7:00 PM)
Minimum temperature yesterday: 57 °F (at 6:00 AM)
Average temperature yesterday: 71 °F

Past Weeks' High & Low Weather Summary

 TemperatureHumidityPressure
High81 °F (Jul 1, 7:00 PM)96% (Jun 23, 3:00 AM)30.24 "Hg (Jun 23, 3:00 AM)
Low48 °F (Jun 25, 6:00 AM)31% (Jul 1, 4:00 PM)29.65 "Hg (Jun 23, 6:00 AM)
Average61 °F72%30.05 "Hg
* Reported Jun 17 12:00 Noon — Jul 2 10:00 AM, Radebeul, Weather by CustomWeather, © 2015

Note: Actual official high and low records may vary slightly from our data, if they occured in-between our weather recording intervals... More about our weather records

Advertising

Radebeul weather history for previous 24 hours

 ConditionsComfort  
Time TempWeatherWind HumidityBarometerVisibility
10:00 AM
Thu, Jul 2
76 °FPassing clouds.6 mph43%30.23 "Hg31 mi
9:00 AM74 °FPassing clouds.6 mph49%30.24 "Hg31 mi
8:00 AM70 °FSunny.6 mph54%30.23 "Hg31 mi
7:00 AM67 °FSunny.5 mph61%30.23 "Hg31 mi
6:00 AM65 °FSunny.5 mph64%30.23 "Hg31 mi
4:00 AM64 °FPassing clouds.5 mph66%30.23 "Hg37 mi
3:00 AM64 °FPassing clouds.5 mph64%30.23 "Hg37 mi
2:00 AM66 °FPassing clouds.5 mph60%30.22 "Hg37 mi
1:00 AM67 °FPassing clouds.3 mph58%30.22 "Hg37 mi
12:00 AM67 °FPassing clouds.3 mph59%30.21 "Hg37 mi
11:00 PM
Wed, Jul 1
69 °FPassing clouds.5 mph54%30.20 "Hg37 mi
10:00 PM70 °FPassing clouds.3 mph49%30.19 "Hg37 mi
9:00 PM76 °FPassing clouds.5 mph36%30.16 "Hg37 mi
8:00 PM79 °FPassing clouds.5 mph32%30.16 "Hg34 mi
7:00 PM81 °FPassing clouds.5 mph32%30.16 "Hg34 mi
6:00 PM80 °FPassing clouds.5 mph31%30.16 "Hg31 mi
4:00 PM80 °FPassing clouds.5 mph31%30.16 "Hg31 mi
3:00 PM80 °FPassing clouds.3 mph32%30.17 "Hg31 mi
2:00 PM78 °FPassing clouds.3 mph35%30.19 "Hg28 mi
1:00 PM77 °FPassing clouds.6 mph36%30.19 "Hg28 mi
12:00 PM76 °FPassing clouds.5 mph41%30.20 "Hg28 mi
Weather by CustomWeather, © 2015

See weather overviewHow to use our weather pages